Regional Weather Roundup
Issued by NWS

Home | Current Version | Previous Version | Graphics & Text | Print | Product List | Glossary Off
Versions: 1 2 3 4 5 6 7 8 9 10 11 12 13 14 15 16 17 18 19 20 21 22 23 24 25 26 27 28 29 30 31 32 33 34 35 36 37 38 39 40 41 42 43 44 45 46 47 48 49 50

000
ASUS43 KMKX 190420
RWRWI

WISCONSIN REGIONAL WEATHER ROUNDUP
NATIONAL WEATHER SERVICE MILWAUKEE/SULLIVAN WI
1100 PM CDT WED APR 18 2018

NOTE: "FAIR" INDICATES FEW OR NO CLOUDS BELOW 12,000 FEET WITH NO
SIGNIFICANT WEATHER AND/OR OBSTRUCTIONS TO VISIBILITY.

WIZ001-002-006>008-014>016-023>028-190500-
NORTHWEST WISCONSIN

CITY           SKY/WX    TMP DP  RH WIND       PRES   REMARKS
SUPERIOR ARPT  FAIR      25  20  82 CALM      30.24R
ASHLAND        FAIR      26  18  71 CALM      30.21R
HAYWARD        FAIR      29  15  56 N5        30.18R WCI  24
SIREN          FAIR      32  12  44 CALM      30.21R
CUMBERLAND     FAIR      32  12  43 NE5       30.17S WCI  27
RICE LAKE      FAIR      31  16  52 NE8       30.19R WCI  24
CHETEK         FAIR      35  14  43 NE8G20    30.17R WCI  28
LADYSMITH      FAIR      32  15  50 N6        30.17S WCI  26
EAU CLAIRE     FAIR      35  21  56 NE7       30.14R WCI  29
MENOMONIE      FAIR      35  17  48 N9        30.17R WCI  28
NEW RICHMOND   FAIR      32  14  47 NE5       30.18R WCI  27
OSCEOLA        FAIR      34  13  42 NE8       30.21R WCI  28
$$

WIZ003>005-009-010-017-018-190500-
NORTH CENTRAL WISCONSIN

CITY           SKY/WX    TMP DP  RH WIND       PRES   REMARKS
MANITOWISH WTR FAIR      29  12  48 N3        30.13S
ARBOR VITAE    FAIR      29  18  62 N6        30.13R WCI  23
WOODRUFF       FAIR      29  18  62 N6        30.13R WCI  23
RHINELANDER    FAIR      31  19  61 N6        30.11R WCI  25
EAGLE RIVER    FAIR      28  17  61 N5        30.11R WCI  23
LAND O LAKES   FAIR      30  14  52 N5        30.13R WCI  25
PHILLIPS       FAIR      29  13  50 N6        30.13S WCI  23
TOMAHAWK       FAIR      30  20  66 N7        30.11S WCI  23
MEDFORD        FAIR      31  19  59 N7        30.10R WCI  24
MERRILL          N/A     32  18  55 N6        30.11R WCI  26
$$

WIZ029-030-035-036-043>047-190500-
CENTRAL WISCONSIN

CITY           SKY/WX    TMP DP  RH WIND       PRES   REMARKS
WAUSAU         FAIR      34  19  54 N10G18    30.07R WCI  26
MOSINEE        FAIR      34  23  64 N13G22    30.09R WCI  25
MARSHFIELD     FAIR      35  21  56 NE14      30.07R WCI  26
STEVENS POINT  FAIR      33  22  62 N14G20    30.07R WCI  23
WAUPACA        FAIR      36  23  59 N12       30.05S WCI  28
WAUTOMA        FAIR      32  27  81 N8        30.05R WCI  25
WISC RAPIDS    FAIR      35  20  54 NE13      30.07R WCI  26
CAMP DOUGLAS   FAIR      26  26  99 CALM      30.07R
$$

WIZ011>013-019>022-031-037>040-048>050-190500-
NORTHEAST WISCONSIN

CITY           SKY/WX    TMP DP  RH WIND       PRES   REMARKS
ANTIGO         FAIR      30  18  62 N12       30.08R WCI  20
SHAWANO        FAIR      36  22  57 N10       30.07R WCI  28
OCONTO         FAIR      34  20  57 N7        30.06S WCI  28
STURGEON BAY   FAIR      33  24  69 N14       30.05R WCI  23
GREEN BAY      FAIR      35  24  64 N15       30.04R WCI  25
MANITOWOC      FAIR      35  24  64 N12G20    30.01R WCI  27
APPLETON       PTCLDY    34  21  60 N17       30.00R WCI  23
CLINTONVILLE   FAIR      35  21  57 N8        30.06S WCI  28
OSHKOSH        FAIR      35  25  66 NE20      30.01R WCI  24
$$

WIZ032>034-041-042-053>061-190500-
SOUTHWEST WISCONSIN

CITY           SKY/WX    TMP DP  RH WIND       PRES   REMARKS
LA CROSSE      FAIR      32  30  92 N7        30.10R WCI  26
SPARTA         FOG       27  27 100 CALM      30.10R VSB 1/4
VIROQUA        MOCLDY    31  31 100 N6        30.07R WCI  25
BOSCOBEL       CLOUDY    33  31  92 CALM      30.09R
PRAIRIE DU CHI FLURRIES  32  30  93 CALM      30.09R
PLATTEVILLE    CLOUDY    32  32 100 NW9       30.06R WCI  24
$$

WIZ056-057-062-063-064-067-068-190500-
SOUTH CENTRAL WISCONSIN

CITY           SKY/WX    TMP DP  RH WIND       PRES   REMARKS
REEDSBURG      CLOUDY    31  31 100 CALM      30.06R
BARABOO/DELLS    N/A     31  31  98 NW3       30.05R
LONE ROCK      CLOUDY    32  32 100 NW6       30.07R WCI  26
MINERAL POINT  LGT SNOW  32  32 100 NW9       30.04R WCI  24
MADISON        LGT SNOW  32  30  92 N12G18    30.02R FOG     WCI  23
MIDDLETON      CLOUDY    33  32  94 N12       30.03R WCI  25
WATERTOWN      MIX PCPN  31  31 100 N5        29.99R WCI  27
MONROE         LGT SNOW  32  32 100 N14G20    30.00R WCI  22
JANESVILLE     LGT SNOW  34  34 100 N10G16    29.99R WCI  26
$$

WIZ051-052-058>065-066-070>072-190500-
SOUTHEAST WISCONSIN

CITY           SKY/WX    TMP DP  RH WIND       PRES   REMARKS
MILWAUKEE      LGT SNOW  34  33  96 N10       29.96R FOG     WCI  26
WAUKESHA       MIX PCPN  32  30  93 N8        29.98R WCI  25
MILWAUKEE/TIMM LGT RAIN  32  30  93 N7        29.98R WCI  26
RACINE         LGT SNOW  33  32  96 N15G24    29.97R FOG     WCI  23
BURLINGTON     LGT SNOW  32  30  93 N9        29.97R WCI  24
KENOSHA        SLEET     34  31  88 N10       29.95R WCI  26
FOND DU LAC    FAIR      34  26  72 N14       30.02R WCI  25
SHEBOYGAN      FAIR      35  27  72 N14G25    29.98R WCI  26
WEST BEND      CLOUDY    34  32  93 N8        29.98R WCI  27
JUNEAU         CLOUDY    32  28  86 N9        30.02R WCI  24
$$

LSZ147-162-190500-
LAKE SUPERIOR

STATION/POSITION TIME  TEMP    WIND        PRES    WAVE
                       AIR SEA DIR/SP/G            HT/PER
                 (UTC) (F)     (DEG/KT/KT) (MB)    (FT/S)
DEVILS ISLAND    0400   38     310/  8/  9 1023.8R
SAXON HARBOR     0340   26      CALM  /  1 1022.4R
$$

LMZ867-665-643>646-190500-
LAKE MICHIGAN

STATION/POSITION TIME  TEMP    WIND        PRES    WAVE
                       AIR SEA DIR/SP/G            HT/PER
                 (UTC) (F)     (DEG/KT/KT) (MB)    (FT/S)
NORTHPORT PIER   0340   34                 1017.3R
KEWAUNEE LAKESHO 0354   35     350/ 11/ 17 1015.9R
SHEBOYGAN LAKESH 0400   36      10/ 25/ 29 1015.9R
PORT WASHINGTON  0330   34      10/  7/ 12 1016.3R
MILWAUKEE LAKESH 0400   33      20/ 17/ 18   N/A
KENOSHA   LAKESH 0400   35                 1013.9
$$

TC  - TEMPERATURE IN CELSIUS
VSB - VISIBILITY IN STATUTE MILES
WCI - WIND CHILL INDEX
HX  - HEAT INDEX




USA.gov is the U.S. government's official web portal to all federal, state and local government web resources and services.